Temperature
19 20 20 20 21 21 20 19 19 20 20 20 19 19 20 20 20 20 20 20 20 20 19 19 19 19 18 18 18 17 17 17 17 16 16 16 15 15 15 15 15 14 14 14
20 21 21 21 21 21 21 21 20 20 20 20 21 21 20 20 20 20 20 20 20 20 19 19 19 19 18 18 18 18 17 17 17 16 16 16 15 15 15 15 14 14 14 14
18 20 21 20 21 21 21 21 21 20 20 20 20 20 20 21 20 20 21 20 20 20 20 20 19 19 19 18 18 18 17 17 17 16 16 16 16 15 15 15 15 14 14 14
18 20 20 20 21 21 21 21 21 21 20 20 21 21 22 22 21 21 21 21 21 20 20 20 19 19 19 18 18 18 17 17 17 16 16 16 16 15 15 15 15 14 14 14
17 18 19 20 22 22 21 21 21 21 20 21 21 21 20 21 22 22 21 21 21 20 20 20 19 19 18 18 18 17 17 17 17 16 16 16 16 16 15 15 15 14 14 14
17 19 19 20 22 23 21 20 21 21 20 20 20 17 18 21 21 21 21 21 20 20 20 19 19 19 18 18 18 17 17 17 17 16 16 16 16 16 15 15 15 14 14 14
17 17 18 19 21 22 20 19 21 21 21 21 20 20 21 21 21 21 21 21 20 20 20 19 19 19 18 18 18 18 17 17 17 16 16 16 16 15 15 15 14 14 14 14
15 17 18 20 21 20 19 21 21 22 22 22 22 21 21 21 21 21 20 20 20 20 19 19 19 18 18 18 18 17 17 17 16 16 16 16 15 15 15 14 14 14 13 13
16 17 19 21 21 22 22 22 22 22 22 22 21 21 21 21 21 20 20 20 19 19 19 19 18 18 18 18 17 17 17 16 16 16 16 15 15 15 14 14 14 13 13 13
17 18 19 21 21 22 22 22 22 22 21 21 21 21 21 20 20 20 19 19 19 19 19 18 18 18 18 18 17 17 16 16 16 15 15 15 15 14 14 14 14 13 13 13
16 18 19 20 21 21 21 21 21 21 21 21 21 20 20 20 20 19 19 19 19 18 18 18 18 17 17 17 17 16 16 16 15 15 15 14 14 14 14 14 13 13 13 13
16 18 17 19 20 21 21 21 20 20 20 20 20 20 19 19 19 19 19 18 18 18 18 18 17 17 17 16 16 16 16 15 15 15 14 14 14 13 13 13 13 12 12 12
20 20 20 20 20 20 20 20 20 20 20 19 19 19 19 19 18 18 18 18 18 18 17 17 17 17 16 16 16 15 15 15 14 14 14 14 13 13 13 12 12 12 12 11
20 20 19 19 19 19 19 19 19 19 19 19 19 18 18 18 18 18 17 17 17 17 17 16 16 16 16 15 15 15 15 14 14 14 13 13 13 13 12 12 12 12 11 11
19 19 19 18 18 18 18 18 18 18 18 18 18 18 17 17 17 17 17 17 16 16 16 16 16 15 15 15 15 14 14 14 13 13 13 13 12 12 12 11 11 11 11 11
18 18 18 18 17 17 18 18 17 17 17 17 17 17 17 17 16 16 16 16 16 16 15 15 15 15 14 14 14 14 13 13 13 13 12 12 12 11 11 11 11 11 10 10
17 16 17 16 17 17 17 17 16 16 16 16 16 16 16 16 16 15 15 15 15 15 15 14 14 14 14 14 13 13 13 13 12 12 12 12 11 11 11 11 10 10 10 10
17 16 16 16 16 16 16 16 16 15 15 15 15 15 15 15 15 15 15 14 14 14 14 14 14 13 13 13 13 12 12 12 12 11 11 11 11 10 10 10 10 10 10 9
16 16 15 15 15 15 15 15 15 15 15 14 14 14 14 14 14 14 14 14 13 13 13 13 13 13 12 12 12 12 11 11 11 11 11 10 10 10 9 9 9 9 9 9
15 15 15 15 14 14 14 14 14 14 14 14 14 13 13 13 13 13 13 13 13 12 12 12 12 12 11 11 11 11 11 10 10 10 10 9 9 9 9 9 8 8 8 8
14 14 14 13 13 13 13 13 13 13 13 13 13 13 12 12 12 12 12 12 12 11 11 11 11 11 10 10 10 10 10 9 9 9 9 9 8 8 8 8 8 7 7 7
13 13 13 13 12 12 12 12 12 12 12 12 12 12 12 11 11 11 11 11 11 10 10 10 10 10 10 9 9 9 9 9 8 8 8 8 7 7 7 7 7 7 6 6
12 12 12 12 12 11 11 11 11 11 11 11 11 11 11 10 10 10 10 10 10 10 9 9 9 9 9 9 8 8 8 8 7 7 7 7 7 6 6 6 6 6 6 5
11 11 11 11 11 11 10 10 10 10 10 10 10 10 10 10 9 9 9 9 9 9 9 9 8 8 8 8 8 7 7 7 7 6 6 6 6 6 5 5 5 5 5 5
10 10 10 10 10 10 9 9 9 9 9 9 9 9 9 9 9 8 8 8 8 8 8 8 8 7 7 7 7 7 6 6 6 6 5 5 5 5 5 5 4 4 4 4
9 9 9 9 9 9 9 9 9 8 8 8 8 8 8 8 8 7 7 7 7 7 7 7 7 7 7 6 6 6 6 5 5 5 5 5 4 4 4 4 4 3 3 3
9 8 8 8 8 8 8 8 8 8 8 7 7 7 7 7 7 7 7 6 6 6 6 6 6 6 6 6 5 5 5 5 4 4 4 4 3 3 3 3 3 3 2 2
Wind_Speed
7 7 5 6 7 7 6 7 7 6 6 8 8 10 9 9 9 9 9 9 10 11 10 9 8 8 8 8 8 8 8 8 8 7 6 6 6 5 5 5 5 5 4 3
3 5 4 5 7 8 8 6 6 5 6 7 5 5 6 8 10 10 11 11 11 11 10 10 10 9 8 8 8 8 9 8 7 7 7 7 6 6 5 5 4 4 4 4
3 5 1 4 8 8 6 6 7 7 8 4 4 7 9 10 11 11 11 11 11 11 11 11 11 10 10 9 7 8 8 7 7 7 7 7 7 7 6 5 5 5 4 4
2 2 2 7 5 5 5 4 5 5 5 7 8 8 7 8 10 10 10 10 10 10 10 9 9 8 8 7 8 8 7 7 7 8 7 6 6 7 6 5 5 5 4 4
4 2 5 7 4 3 5 2 2 4 4 5 5 5 1 3 7 10 10 10 10 10 9 9 9 9 8 8 8 8 8 8 8 8 8 7 7 7 6 5 5 4 4 5
4 4 5 7 6 1 6 1 5 3 6 6 7 4 4 4 4 5 5 6 7 7 7 8 8 9 9 9 9 9 9 9 8 8 8 8 8 7 5 5 5 5 4 4
5 5 7 8 5 3 5 6 4 3 6 7 6 6 5 4 4 5 5 5 6 7 8 8 8 9 10 9 10 10 8 7 7 7 7 7 6 5 5 5 5 4 4 4
6 5 8 5 3 6 7 4 3 4 5 6 4 3 4 4 4 4 4 5 6 7 7 6 8 10 10 10 9 6 7 7 7 7 6 6 6 5 5 6 5 5 4 3
8 7 6 3 5 5 6 5 4 4 4 5 5 4 4 4 4 4 4 5 5 6 6 5 7 9 10 9 6 7 7 7 7 6 5 6 6 6 4 5 5 5 4 5
2 3 2 1 2 3 4 5 4 5 5 5 4 4 4 4 4 3 3 4 4 5 5 5 6 7 8 7 7 8 8 7 6 6 5 5 5 5 5 5 5 5 5 5
2 2 1 2 1 3 3 4 5 4 4 5 5 4 4 4 4 4 3 3 5 6 6 6 5 5 5 6 8 8 7 6 6 6 6 5 5 5 6 7 8 8 7 6
6 7 6 5 4 4 5 4 4 5 3 3 4 4 4 4 4 4 4 3 4 4 4 4 5 5 4 6 8 8 6 6 5 5 5 4 4 3 4 5 8 10 10 8
5 5 6 4 3 3 4 4 4 5 4 3 2 3 4 3 3 3 3 4 4 5 4 4 4 4 4 5 6 7 7 6 5 5 5 5 4 5 4 4 5 7 9 10
4 5 4 3 3 3 4 4 4 4 3 3 3 3 3 3 3 3 3 4 4 4 4 4 4 3 4 5 5 5 5 6 5 5 5 5 5 5 5 4 4 5 6 9
2 4 5 4 3 3 3 4 5 4 3 3 3 3 3 3 3 3 3 2 3 3 3 3 3 3 3 4 5 5 4 3 4 4 4 5 5 5 4 5 5 5 4 5
3 4 5 5 4 3 4 4 4 2 2 2 2 2 2 3 2 1 2 3 4 4 4 4 4 3 3 4 4 3 3 4 3 3 3 3 4 4 5 5 5 5 5 5
6 5 4 4 4 3 3 3 4 3 2 2 2 1 2 3 2 1 1 2 3 3 4 4 4 3 4 4 4 3 2 3 3 2 3 4 4 5 5 5 5 6 6 6
7 7 7 7 6 4 3 2 2 3 2 2 2 3 3 3 2 2 1 1 2 1 1 2 2 2 3 4 3 3 2 2 2 3 3 3 3 4 4 5 6 6 5 5
6 6 6 5 5 5 4 2 2 2 1 2 3 2 2 2 2 2 2 3 2 0 2 1 2 3 2 3 2 2 2 2 2 2 2 3 3 3 3 4 5 5 5 4
6 6 6 5 4 4 4 3 3 2 2 3 3 3 2 1 2 3 3 2 1 2 1 1 2 2 2 2 2 2 2 2 1 2 2 2 3 3 4 4 4 4 4 4
6 6 5 5 4 3 3 3 4 3 2 3 4 3 2 2 2 3 3 1 2 1 1 1 1 1 1 1 2 2 1 1 1 1 2 2 2 3 3 3 3 4 4 4
5 5 5 5 5 3 2 3 4 4 4 3 3 3 3 3 2 2 1 1 1 1 1 1 1 1 1 2 2 1 1 0 0 1 1 1 2 2 3 3 3 4 4 4
5 5 5 5 5 3 3 3 3 4 4 3 3 3 2 1 1 2 1 2 1 0 0 1 1 1 2 2 2 1 1 0 0 1 1 2 2 2 3 3 3 3 3 3
5 5 4 4 5 5 4 2 2 3 3 2 2 2 2 2 1 1 1 1 1 1 0 1 1 1 2 1 1 1 1 1 1 1 2 2 2 2 2 2 3 3 3 3
4 5 5 5 5 3 3 3 3 3 3 2 2 1 1 1 1 1 0 0 1 2 1 1 1 0 1 1 1 1 1 2 1 1 1 2 2 2 3 3 3 3 3 4
3 3 3 3 3 3 3 3 2 2 2 1 1 1 1 1 1 0 0 0 0 2 1 1 1 0 0 1 1 1 1 1 1 1 2 2 3 3 3 3 4 4 4 4
3 3 3 2 2 2 3 3 3 2 2 2 1 1 1 0 0 0 0 1 1 1 1 1 1 1 1 1 1 1 1 1 1 1 2 2 2 3 3 4 4 4 4 5
Wind_Direction
232 240 210 219 225 214 199 194 196 230 223 237 211 191 187 181 176 171 178 183 184 186 188 189 188 190 192 193 189 181 176 180 186 186 181 171 168 168 164 159 159 161 154 152
286 272 243 239 237 224 221 218 215 220 246 240 211 171 172 175 171 177 188 193 191 188 186 189 191 192 191 191 188 177 179 188 181 175 172 172 174 168 164 165 159 152 155 153
269 296 37 273 237 218 215 215 192 208 229 208 163 179 187 185 180 187 193 191 189 192 193 195 194 190 192 191 179 174 181 183 178 174 173 177 177 167 171 170 158 157 164 158
199 37 234 250 248 203 192 231 207 196 200 184 182 185 181 178 181 189 190 188 190 192 195 195 190 187 181 173 172 177 182 183 181 177 180 177 169 172 175 165 163 167 173 172
142 189 274 291 285 190 167 264 269 186 181 166 140 95 30 210 185 189 190 189 192 191 188 186 184 180 167 168 172 176 186 192 190 182 179 177 180 183 178 166 170 175 177 177
140 167 228 251 270 220 114 317 299 171 157 148 120 125 237 227 189 190 189 186 185 177 169 176 184 171 168 176 179 191 196 195 188 182 181 186 190 187 176 173 185 181 186 192
165 200 252 253 268 100 138 221 255 156 146 147 160 188 201 178 174 178 176 179 171 166 176 187 178 168 176 182 197 202 189 179 176 179 185 187 185 180 174 176 177 184 195 209
158 183 246 259 136 159 199 197 179 147 142 145 159 154 148 156 166 161 163 163 161 168 183 183 172 171 181 197 202 181 169 172 178 181 184 179 169 174 173 173 179 194 202 224
185 207 236 236 180 183 159 151 155 147 149 139 135 145 153 155 159 160 159 166 167 171 175 179 180 179 189 200 178 166 168 178 182 180 182 171 171 176 174 177 187 203 205 222
175 249 235 162 130 133 150 149 150 144 140 133 141 152 152 155 157 159 160 161 157 154 165 185 192 190 191 181 167 163 172 181 181 180 182 178 178 181 183 191 198 206 211 223
176 232 80 358 130 148 118 111 112 112 122 138 135 145 158 163 169 171 169 165 157 164 177 190 185 186 179 169 164 169 176 179 182 184 184 187 193 199 199 208 204 204 214 215
204 207 180 216 224 150 127 126 130 121 103 115 140 155 159 171 177 169 167 162 159 165 173 180 175 180 179 172 169 171 178 182 184 184 184 185 190 225 242 228 226 219 217 215
194 190 177 182 173 145 138 137 128 128 135 135 136 144 149 161 169 158 158 164 175 181 178 170 168 179 186 175 170 174 182 187 186 184 185 188 190 198 231 269 259 242 233 229
157 132 132 155 167 155 134 123 108 97 102 120 127 120 125 128 140 155 180 192 182 167 164 163 164 187 191 171 167 173 178 188 188 192 192 195 200 204 207 217 241 259 254 244
165 152 162 161 141 130 117 105 96 86 80 75 94 110 127 135 164 192 193 155 133 141 161 164 172 201 182 165 168 174 178 189 192 193 197 202 205 207 212 219 230 244 258 266
155 122 124 124 126 121 110 113 119 125 118 109 102 119 148 154 164 167 153 143 146 172 190 184 198 208 177 167 167 178 195 210 200 196 200 206 207 212 220 227 234 240 244 246
148 151 148 145 140 131 134 147 155 159 144 137 158 154 113 101 96 102 147 170 177 191 194 194 209 199 174 172 172 182 189 208 213 208 211 215 218 223 225 227 233 239 245 241
167 168 164 160 155 146 136 134 143 148 157 171 136 107 110 130 160 184 184 132 105 75 274 231 193 159 164 173 175 179 185 197 206 212 220 226 232 233 231 231 233 237 247 248
138 136 134 135 140 139 138 145 155 160 147 125 116 119 135 156 159 143 116 106 115 182 282 243 127 133 159 178 168 167 178 196 219 231 224 230 238 241 241 241 242 241 241 244
125 125 121 114 111 121 123 120 114 103 100 111 110 101 86 80 109 108 101 104 208 233 228 134 116 129 153 166 142 151 160 175 205 236 243 239 238 246 247 246 246 248 248 245
126 121 115 109 98 96 109 117 116 111 103 105 113 122 116 87 88 101 105 72 319 330 105 103 118 145 136 114 99 115 135 173 212 242 251 252 256 260 258 253 252 252 251 250
127 120 117 114 106 93 87 100 110 108 99 96 99 104 99 87 75 70 77 205 251 357 71 138 150 136 104 87 101 105 112 139 264 292 279 272 268 269 269 265 261 260 257 253
124 122 120 120 122 117 89 87 101 109 110 113 117 120 125 143 146 134 296 295 276 352 95 183 185 133 105 104 124 129 128 143 279 284 281 275 270 269 268 269 267 266 268 269
116 117 120 119 111 105 99 90 94 104 108 106 111 121 119 102 24 326 252 287 348 359 358 216 175 132 100 122 152 170 202 233 259 278 287 285 280 276 273 273 277 278 274 276
110 111 113 113 114 128 141 118 92 83 80 70 58 57 73 130 170 268 308 311 349 15 1 297 276 89 105 159 185 211 230 240 246 257 264 272 276 276 272 267 266 273 277 277
114 119 127 136 144 146 139 124 116 111 104 81 29 15 31 39 91 105 88 25 13 358 355 318 289 302 197 203 220 235 243 262 289 289 272 277 280 280 277 274 274 272 273 274
102 106 108 98 100 132 138 138 142 156 166 164 199 263 244 188 102 64 35 4 341 326 321 321 310 282 255 244 250 255 257 272 273 272 280 283 280 278 276 276 275 274 274 274
Height
1517 1513 1514 1515 1514 1514 1518 1522 1528 1522 1519 1512 1508 1507 1508 1510 1513 1515 1518 1521 1523 1525 1528 1531 1534 1536 1538 1540 1542 1544 1545 1546 1547 1549 1550 1550 1551 1552 1553 1553 1554 1555 1556 1556
1516 1509 1510 1512 1510 1510 1511 1512 1514 1514 1514 1504 1504 1505 1507 1509 1511 1513 1515 1517 1520 1523 1525 1528 1530 1533 1535 1537 1539 1541 1542 1544 1545 1547 1547 1548 1549 1550 1551 1552 1553 1553 1554 1555
1525 1514 1513 1519 1508 1506 1506 1504 1506 1512 1508 1501 1504 1504 1505 1506 1508 1510 1512 1515 1517 1520 1522 1525 1527 1530 1532 1535 1537 1539 1540 1542 1543 1544 1545 1546 1548 1549 1549 1550 1551 1552 1552 1553
1525 1520 1528 1513 1496 1497 1500 1500 1499 1498 1498 1498 1499 1500 1502 1504 1506 1508 1510 1512 1515 1517 1520 1523 1525 1527 1530 1532 1534 1536 1537 1539 1541 1542 1543 1544 1546 1547 1548 1549 1549 1550 1551 1551
1527 1528 1521 1506 1495 1495 1499 1502 1497 1497 1497 1497 1498 1501 1504 1504 1505 1506 1508 1511 1513 1515 1518 1520 1522 1525 1527 1529 1531 1533 1534 1536 1538 1539 1541 1542 1543 1544 1545 1546 1547 1548 1548 1549
1523 1525 1527 1508 1493 1490 1496 1506 1496 1494 1495 1497 1498 1506 1505 1503 1505 1506 1507 1509 1511 1514 1516 1518 1520 1522 1524 1526 1528 1529 1531 1533 1535 1537 1538 1539 1540 1542 1543 1544 1545 1546 1546 1547
1520 1522 1515 1496 1490 1492 1508 1507 1495 1493 1493 1495 1497 1499 1500 1501 1503 1504 1506 1508 1510 1512 1513 1515 1518 1520 1521 1523 1524 1526 1529 1531 1532 1534 1535 1536 1538 1539 1540 1541 1542 1542 1543 1544
1518 1521 1515 1490 1490 1495 1496 1492 1493 1493 1493 1494 1496 1497 1499 1500 1502 1503 1504 1506 1508 1509 1511 1513 1515 1517 1518 1519 1521 1524 1526 1528 1529 1531 1532 1533 1534 1535 1537 1538 1538 1539 1539 1540
1502 1502 1491 1487 1487 1488 1489 1490 1492 1492 1493 1494 1495 1497 1498 1499 1500 1501 1503 1504 1506 1507 1509 1511 1513 1514 1515 1517 1519 1521 1523 1524 1526 1527 1529 1530 1531 1532 1533 1534 1535 1535 1535 1535
1494 1491 1488 1487 1487 1488 1489 1490 1491 1492 1493 1494 1494 1496 1497 1498 1499 1500 1501 1503 1504 1506 1507 1509 1510 1512 1513 1515 1516 1518 1519 1521 1522 1524 1525 1526 1527 1529 1529 1530 1530 1531 1531 1531
1492 1489 1488 1487 1487 1488 1489 1490 1490 1491 1492 1493 1494 1495 1496 1496 1497 1499 1500 1501 1502 1504 1505 1506 1508 1509 1511 1512 1514 1515 1516 1517 1519 1520 1521 1522 1523 1524 1525 1526 1527 1527 1527 1527
1488 1484 1485 1486 1486 1486 1487 1488 1489 1490 1491 1492 1493 1493 1494 1495 1496 1497 1498 1499 1500 1501 1503 1504 1505 1506 1508 1509 1510 1511 1512 1514 1515 1516 1517 1518 1519 1520 1520 1521 1522 1522 1522 1522
1479 1480 1481 1483 1484 1485 1486 1487 1488 1488 1489 1490 1491 1492 1492 1493 1494 1495 1496 1497 1498 1499 1500 1501 1502 1503 1504 1506 1507 1508 1509 1510 1511 1512 1513 1513 1514 1515 1515 1516 1516 1517 1517 1516
1476 1478 1480 1481 1482 1484 1485 1485 1486 1487 1488 1488 1489 1490 1490 1491 1492 1493 1494 1495 1496 1497 1498 1499 1500 1500 1501 1502 1503 1504 1505 1506 1507 1508 1509 1509 1510 1510 1510 1510 1510 1510 1511 1511
1475 1476 1477 1479 1480 1481 1483 1484 1484 1485 1486 1486 1487 1488 1488 1489 1489 1490 1491 1492 1493 1494 1495 1496 1497 1497 1499 1499 1500 1501 1502 1503 1503 1504 1504 1505 1505 1505 1505 1505 1505 1504 1504 1504
1472 1474 1475 1476 1478 1479 1480 1481 1482 1483 1484 1484 1485 1486 1486 1487 1487 1488 1489 1490 1490 1491 1492 1492 1493 1494 1495 1496 1497 1498 1498 1499 1500 1500 1500 1500 1500 1500 1500 1500 1499 1498 1498 1498
1469 1471 1473 1474 1475 1477 1478 1479 1480 1481 1482 1482 1483 1484 1484 1485 1485 1486 1486 1487 1488 1488 1489 1489 1490 1491 1492 1492 1493 1493 1494 1495 1495 1495 1495 1495 1495 1495 1495 1494 1493 1493 1492 1492
1466 1468 1470 1471 1472 1474 1476 1477 1478 1479 1479 1480 1481 1481 1482 1482 1482 1483 1484 1484 1485 1485 1486 1486 1487 1487 1488 1488 1489 1489 1490 1490 1490 1490 1490 1490 1490 1490 1489 1489 1488 1487 1486 1486
1463 1465 1467 1469 1470 1472 1473 1474 1476 1476 1477 1478 1478 1479 1479 1480 1480 1480 1481 1481 1481 1481 1482 1483 1483 1484 1484 1484 1485 1485 1485 1485 1485 1485 1485 1485 1485 1484 1484 1483 1482 1481 1481 1480
1461 1463 1465 1467 1468 1469 1471 1472 1473 1474 1475 1476 1476 1476 1477 1477 1478 1478 1478 1478 1479 1479 1479 1480 1480 1480 1480 1480 1481 1481 1481 1481 1480 1480 1480 1479 1479 1478 1478 1477 1476 1475 1474 1473
1459 1461 1463 1464 1466 1468 1469 1470 1472 1472 1473 1474 1474 1474 1475 1475 1476 1476 1475 1475 1476 1476 1476 1476 1476 1476 1476 1476 1476 1476 1476 1476 1476 1475 1475 1474 1474 1473 1472 1471 1470 1469 1468 1467
1457 1459 1461 1463 1464 1466 1468 1469 1470 1471 1471 1472 1472 1473 1473 1473 1473 1473 1473 1474 1473 1474 1473 1473 1473 1473 1473 1473 1473 1472 1472 1472 1471 1471 1470 1470 1469 1468 1467 1465 1464 1463 1462 1461
1456 1458 1460 1461 1463 1464 1466 1467 1468 1468 1469 1470 1470 1470 1470 1471 1471 1471 1470 1471 1471 1471 1470 1470 1470 1470 1470 1470 1469 1469 1469 1468 1468 1467 1466 1465 1464 1463 1462 1460 1459 1458 1456 1455
1455 1457 1459 1460 1462 1463 1464 1465 1466 1467 1467 1468 1468 1468 1468 1468 1468 1469 1469 1468 1468 1468 1467 1467 1467 1467 1466 1466 1466 1466 1465 1465 1464 1463 1462 1461 1460 1459 1457 1456 1454 1452 1451 1450
1455 1456 1458 1459 1460 1461 1462 1463 1464 1465 1465 1466 1466 1466 1467 1467 1466 1466 1466 1466 1465 1465 1464 1464 1464 1464 1463 1463 1462 1462 1462 1461 1460 1460 1459 1457 1456 1454 1453 1451 1449 1448 1446 1445
1454 1455 1457 1458 1459 1460 1461 1462 1462 1463 1463 1463 1464 1464 1464 1464 1464 1464 1463 1463 1463 1462 1462 1461 1461 1460 1460 1460 1459 1459 1458 1457 1457 1455 1454 1453 1451 1450 1448 1446 1445 1443 1441 1439
1453 1455 1456 1457 1458 1459 1459 1460 1460 1461 1461 1461 1461 1462 1462 1461 1461 1461 1461 1460 1460 1459 1459 1458 1458 1457 1457 1456 1456 1455 1454 1453 1452 1451 1450 1448 1447 1445 1443 1441 1440 1438 1436 1434